GLENN Weather Reports


time (UTC)temp
F
wind
direction
speed
knots
gust
knots
rain 1hr
in
rain 24hr
in
rain mn
in
humidity
%
barometer
mb
20260902034505 69 100 5.2 7.8 0.00 0.00 0.00 44 1013.0
20260902033012 70 119 6.1 12.2 0.00 0.00 0.00 43 1013.0
20260902031512 71 134 7.0 14.8 0.00 0.00 0.00 41 1013.0
20260902030020 71 123 7.8 12.2 0.00 0.00 0.00 41 1012.8
20260902024505 70 110 6.1 8.7 0.00 0.00 0.00 42 1012.5
20260902023004 71 111 7.8 10.4 0.00 0.00 0.00 40 1012.5
20260902021517 70 95 5.2 7.8 0.00 0.00 0.00 42 1012.3
20260902020018 70 129 6.1 9.6 0.00 0.00 0.00 41 1012.5
20260902014531 71 131 6.1 8.7 0.00 0.00 0.00 41 1012.5
20260902013004 72 90 8.7 13.9 0.00 0.00 0.00 40 1012.1
20260902011510 73 88 6.1 9.6 0.00 0.00 0.00 39 1012.3
20260902010013 74 92 6.1 9.6 0.00 0.00 0.00 37 1012.2
20260902004526 75 136 2.6 4.3 0.00 0.00 0.00 33 1012.3
20260902003030 76 173 0.0 3.5 0.00 0.00 0.00 30 1012.5
20260902001508 77 123 0.9 7.8 0.00 0.00 0.00 26 1012.4
20260902000022 78 121 3.5 5.2 0.00 0.00 0.00 27 1012.6
20260901234517 79 312 0.9 3.5 0.00 0.00 0.00 24 1012.8
20260901233024 78 335 0.0 2.6 0.00 0.00 0.00 29 1013.0
20260901231533 78 53 1.7 2.6 0.00 0.00 0.00 27 1013.0
20260901230027 77 46 0.9 2.6 0.00 0.00 0.00 26 1013.2
20260901224520 77 85 0.0 3.5 0.00 0.00 0.00 25 1013.4
20260901223024 77 92 1.7 6.1 0.00 0.00 0.00 28 1013.5
20260901221526 77 9 0.9 2.6 0.00 0.00 0.00 27 1013.6
20260901220032 77 308 1.7 5.2 0.00 0.00 0.00 30 1013.9
20260901214512 77 251 3.5 7.8 0.00 0.00 0.00 28 1014.1
20260901213050 77 159 0.9 6.1 0.00 0.00 0.00 28 1014.2
20260901211536 76 225 2.6 7.8 0.00 0.00 0.00 33 1014.7
20260901210035 76 222 3.5 9.6 0.00 0.00 0.00 31 1014.9
20260901204531 75 218 3.5 8.7 0.00 0.00 0.00 33 1015.0
20260901203031 75 151 2.6 8.7 0.00 0.00 0.00 32 1015.2
20260901201523 75 179 6.1 9.6 0.00 0.00 0.00 32 1015.4
20260901200039 75 188 5.2 8.7 0.00 0.00 0.00 34 1015.5
20260901194530 73 128 3.5 13.0 0.00 0.00 0.00 37 1015.7
20260901193009 74 188 6.1 11.3 0.00 0.00 0.00 36 1015.9
20260901191513 71 95 6.1 8.7 0.00 0.00 0.00 37 1016.2
20260901190007 70 71 1.7 5.2 0.00 0.00 0.00 40 1016.4
20260901184509 69 329 2.6 5.2 0.00 0.00 0.00 43 1016.6
20260901183012 68 302 3.5 5.2 0.00 0.00 0.00 40 1016.6
20260901181516 69 96 0.9 7.0 0.00 0.00 0.00 39 1016.7
20260901180010 68 154 0.9 5.2 0.00 0.00 0.00 43 1016.8
20260901174508 69 145 2.6 12.2 0.00 0.00 0.00 41 1016.6
20260901173011 68 82 6.1 16.5 0.00 0.00 0.00 42 1016.6
20260901171520 68 172 12.2 15.6 0.00 0.00 0.00 41 1016.6
20260901170014 67 186 2.6 5.2 0.00 0.00 0.00 43 1016.5
20260901164510 65 196 3.5 7.8 0.00 0.00 0.00 45 1016.8
20260901163009 63 146 0.0 1.7 0.00 0.00 0.00 45 1017.0
20260901161512 62 69 0.9 1.7 0.00 0.00 0.00 42 1016.8
20260901160018 62 5 0.9 3.5 0.00 0.00 0.00 48 1016.6
20260901154518 64 34 0.9 6.1 0.00 0.00 0.00 43 1016.4
20260901153013 65 120 9.6 14.8 0.00 0.00 0.00 42 1016.5
20260901151512 59 146 4.3 9.6 0.00 0.00 0.00 43 1016.7
20260901150015 58 128 3.5 3.5 0.00 0.00 0.00 50 1017.1
20260901144520 58 78 0.0 1.7 0.00 0.00 0.00 58 1016.6
20260901143018 58 65 0.9 1.7 0.00 0.00 0.00 50 1016.6
20260901141507 58 220 0.9 1.7 0.00 0.00 0.00 52 1016.5
20260901140016 57 71 0.9 1.7 0.00 0.00 0.00 49 1016.3
20260901134520 55 123 1.7 1.7 0.00 0.00 0.00 51 1016.4
20260901133023 55 126 0.0 2.6 0.00 0.00 0.00 47 1016.3
20260901131526 56 78 0.9 1.7 0.00 0.00 0.00 44 1016.2
20260901130012 56 84 0.0 0.0 0.00 0.00 0.00 44 1016.2
20260901124517 55 76 0.0 1.7 0.00 0.00 0.00 44 1016.1
20260901123026 56 107 0.9 1.7 0.00 0.00 0.00 45 1016.1
20260901121534 58 86 0.9 1.7 0.00 0.00 0.00 41 1016.0
20260901120038 58 316 0.0 1.7 0.00 0.00 0.00 38 1015.7
20260901114517 59 84 0.0 0.9 0.00 0.00 0.00 37 1015.6
20260901113020 58 115 0.0 1.7 0.00 0.00 0.00 39 1015.7
20260901111526 58 90 0.0 2.6 0.00 0.00 0.00 39 1015.7
20260901110033 58 59 1.7 1.7 0.00 0.00 0.00 39 1016.0
20260901104532 59 117 0.0 0.0 0.00 0.00 0.00 38 1016.1
20260901103017 58 71 1.7 2.6 0.00 0.00 0.00 40 1016.0
20260901101504 57 15 0.0 0.9 0.00 0.00 0.00 41 1016.2
20260901100009 58 117 0.9 2.6 0.00 0.00 0.00 42 1016.2
20260901094516 59 61 2.6 2.6 0.00 0.00 0.00 39 1016.2
20260901093015 60 51 0.9 3.5 0.00 0.00 0.00 39 1016.4
20260901091525 59 118 1.7 4.3 0.00 0.00 0.00 39 1016.1
20260901090008 57 155 4.3 6.1 0.00 0.00 0.00 44 1016.3
20260901084507 60 211 1.7 2.6 0.00 0.00 0.00 41 1016.2
20260901083021 60 100 2.6 3.5 0.00 0.00 0.00 39 1016.3
20260901081519 57 80 0.9 1.7 0.00 0.00 0.00 42 1016.4
20260901080025 59 78 0.9 2.6 0.00 0.00 0.00 40 1016.6
20260901074504 59 87 0.0 0.0 0.00 0.00 0.00 39 1016.6
20260901073011 60 37 0.0 0.9 0.00 0.00 0.00 38 1016.4
20260901071517 61 59 0.0 2.6 0.00 0.00 0.00 36 1016.6
20260901070027 62 227 0.9 3.5 0.00 0.00 0.00 33 1016.6
20260901064538 62 107 0.0 2.6 0.00 0.00 0.00 35 1016.4
20260901063009 61 103 2.6 3.5 0.00 0.00 0.00 35 1016.5
20260901061515 62 191 0.0 2.6 0.00 0.00 0.00 34 1016.6
20260901060021 63 336 0.9 2.6 0.00 0.00 0.00 33 1016.4
20260901054526 62 76 1.7 3.5 0.00 0.00 0.00 34 1016.5
20260901053029 63 103 0.9 3.5 0.00 0.00 0.00 33 1016.6
20260901051512 64 119 1.7 2.6 0.00 0.00 0.00 32 1016.6
20260901050017 64 90 0.0 2.6 0.00 0.00 0.00 31 1016.7
20260901044523 66 128 1.7 3.5 0.00 0.00 0.00 30 1016.7
20260901043029 66 76 1.7 3.5 0.00 0.00 0.00 28 1016.7
20260901041531 65 109 2.6 5.2 0.00 0.00 0.00 30 1016.8
20260901040017 66 42 0.9 3.5 0.00 0.00 0.00 29 1017.0